IZ1REU Weather Reports


Display with metric or nautical units.
time (UTC)temp
F
wind
direction
speed
MPH
gust
MPH
rain 1hr
in
rain 24hr
in
rain mn
in
humidity
%
barometer
mb
20260506204533 63 157 2.0 10.0 0.00 0.70 0.00 78 1010.3
20260506204033 63 103 8.0 8.0 0.00 0.70 0.00 78 1010.2
20260506203536 63 88 0.0 10.0 0.00 0.70 0.00 78 1010.1
20260506203033 63 135 1.0 9.0 0.00 0.70 0.00 78 1010.1
20260506202533 63 96 4.0 9.0 0.00 0.70 0.00 78 1010.1
20260506202030 63 146 1.0 7.0 0.00 0.70 0.00 78 1010.1
20260506201530 63 161 2.0 5.0 0.00 0.70 0.00 78 1010.1
20260506201033 63 127 1.0 4.0 0.00 0.70 0.00 78 1010.1
20260506200530 63 138 2.0 7.0 0.00 0.70 0.00 78 1010.0
20260506200036 63 146 0.0 8.0 0.00 0.70 0.00 78 1009.9
20260506195533 63 118 6.0 6.0 0.00 0.70 0.00 78 1009.9
20260506195030 63 132 0.0 5.0 0.00 0.70 0.00 77 1009.7
20260506194530 63 247 0.0 9.0 0.00 0.70 0.00 77 1009.6
20260506194033 63 234 3.0 4.0 0.00 0.70 0.00 78 1009.6
20260506193530 63 142 1.0 10.0 0.00 0.70 0.00 78 1009.6
20260506193036 63 123 8.0 8.0 0.00 0.70 0.00 78 1009.6
20260506192530 63 135 1.0 10.0 0.00 0.70 0.00 78 1009.5
20260506192036 63 123 0.0 3.0 0.00 0.70 0.00 78 1009.5
20260506191530 63 124 1.0 3.0 0.00 0.70 0.00 79 1009.4
20260506191039 63 132 1.0 9.0 0.00 0.70 0.00 79 1009.3
20260506190530 63 138 0.0 5.0 0.00 0.70 0.00 79 1009.3
20260506190039 63 175 3.0 8.0 0.00 0.70 0.00 79 1009.2
20260506185539 63 123 0.0 5.0 0.00 0.70 0.00 80 1009.2
20260506185030 63 129 1.0 8.0 0.00 0.70 0.00 80 1009.1
20260506184536 63 172 1.0 7.0 0.00 0.70 0.00 80 1009.0
20260506184033 63 139 5.0 8.0 0.00 0.70 0.00 80 1009.0
20260506183530 63 117 0.0 9.0 0.00 0.70 0.00 80 1008.9
20260506183033 63 103 7.0 8.0 0.00 0.70 0.00 80 1008.9
20260506182533 63 92 0.0 11.0 0.00 0.70 0.00 80 1008.8
20260506182033 63 132 1.0 9.0 0.00 0.70 0.00 81 1008.8
20260506181530 63 112 1.0 7.0 0.00 0.70 0.00 81 1008.6
20260506181036 63 117 3.0 9.0 0.00 0.70 0.00 81 1008.5
20260506180536 63 123 5.0 12.0 0.00 0.70 0.00 81 1008.4
20260506180033 63 154 2.0 10.0 0.00 0.70 0.00 81 1008.4
20260506175530 63 221 1.0 6.0 0.00 0.70 0.00 81 1008.3
20260506175033 64 158 3.0 9.0 0.00 0.70 0.00 81 1008.3
20260506174533 64 136 3.0 8.0 0.00 0.70 0.00 81 1008.4
20260506174030 64 217 2.0 10.0 0.00 0.70 0.00 81 1008.3
20260506173530 64 167 1.0 7.0 0.00 0.70 0.00 80 1008.3
20260506173036 64 209 5.0 11.0 0.00 0.70 0.00 80 1008.3
20260506172533 64 81 9.0 14.0 0.00 0.70 0.00 79 1008.3
20260506172030 64 139 2.0 10.0 0.00 0.70 0.00 79 1008.3
20260506171533 64 138 2.0 9.0 0.00 0.70 0.00 78 1008.3
20260506171033 64 130 3.0 8.0 0.00 0.70 0.00 78 1008.2
20260506170530 65 288 0.0 12.0 0.00 0.70 0.00 77 1008.3
20260506170030 65 107 6.0 10.0 0.00 0.70 0.00 77 1008.2
20260506165530 65 148 2.0 10.0 0.00 0.70 0.00 76 1008.1
20260506165033 66 165 4.0 11.0 0.00 0.70 0.00 76 1008.2
20260506164530 66 241 6.0 10.0 0.00 0.70 0.00 74 1008.2
20260506164036 67 133 5.0 11.0 0.00 0.70 0.00 75 1008.3
20260506163530 66 211 2.0 12.0 0.00 0.70 0.00 74 1008.3
20260506163039 67 121 2.0 8.0 0.00 0.70 0.00 76 1008.2
20260506162530 66 232 1.0 10.0 0.00 0.70 0.00 75 1008.2
20260506162033 66 155 6.0 9.0 0.00 0.70 0.00 75 1008.2
20260506161530 66 139 2.0 9.0 0.00 0.70 0.00 75 1008.2
20260506161033 67 138 0.0 5.0 0.00 0.70 0.00 75 1008.2
20260506160530 66 272 8.0 10.0 0.00 0.70 0.00 75 1008.2
20260506160030 66 30 1.0 10.0 0.00 0.70 0.00 76 1008.2
20260506155530 66 140 4.0 10.0 0.00 0.70 0.00 76 1008.1
20260506155030 66 211 1.0 11.0 0.00 0.70 0.00 77 1008.1
20260506154533 66 140 8.0 12.0 0.00 0.70 0.00 77 1008.1
20260506154030 67 105 3.0 8.0 0.00 0.70 0.00 77 1008.1
20260506153536 67 154 8.0 12.0 0.00 0.70 0.00 75 1008.1
20260506153030 68 123 3.0 9.0 0.00 0.70 0.00 75 1008.0
20260506152530 68 123 2.0 7.0 0.00 0.70 0.00 75 1007.9
20260506152030 67 265 3.0 14.0 0.00 0.70 0.00 76 1008.0
20260506151533 68 138 7.0 13.0 0.00 0.70 0.00 76 1008.0
20260506151030 68 138 9.0 11.0 0.00 0.70 0.00 76 1008.0
20260506150536 68 284 2.0 12.0 0.00 0.70 0.00 76 1008.0
20260506150033 68 123 3.0 12.0 0.00 0.70 0.00 76 1008.0
20260506145539 68 146 3.0 7.0 0.00 0.70 0.00 76 1008.0
20260506145033 67 323 0.0 9.0 0.00 0.70 0.00 77 1008.0
20260506144539 67 136 5.0 11.0 0.00 0.70 0.00 76 1008.0
20260506144030 67 154 3.0 8.0 0.00 0.70 0.00 76 1008.0
20260506143530 67 275 3.0 9.0 0.00 0.70 0.00 77 1008.0
20260506143030 66 199 1.0 11.0 0.00 0.70 0.00 79 1008.0
20260506142530 66 153 2.0 8.0 0.00 0.70 0.00 78 1008.0
20260506142030 67 159 1.0 8.0 0.00 0.70 0.00 76 1008.0
20260506141530 67 124 3.0 11.0 0.00 0.70 0.00 76 1008.0
20260506141030 67 148 5.0 12.0 0.00 0.70 0.00 75 1008.0
20260506140533 68 150 8.0 10.0 0.00 0.70 0.00 73 1008.1
20260506140033 68 145 6.0 9.0 0.00 0.70 0.00 71 1008.1
20260506135530 68 180 2.0 9.0 0.00 0.70 0.00 72 1008.0
20260506135039 68 142 2.0 10.0 0.00 0.70 0.00 72 1008.2
20260506134536 68 131 5.0 7.0 0.00 0.70 0.00 71 1008.1
20260506134033 68 202 1.0 9.0 0.00 0.70 0.00 69 1008.2
20260506133536 68 138 3.0 11.0 0.00 0.70 0.00 69 1008.2
20260506133030 68 165 5.0 9.0 0.00 0.70 0.00 71 1008.3
20260506132533 68 136 5.0 11.0 0.00 0.70 0.00 70 1008.3
20260506132033 68 212 1.0 10.0 0.00 0.70 0.00 71 1008.3
20260506131530 68 152 2.0 11.0 0.00 0.70 0.00 71 1008.3
20260506131030 68 164 6.0 14.0 0.00 0.70 0.00 73 1008.3
20260506130530 69 179 3.0 10.0 0.00 0.70 0.00 73 1008.2
20260506130030 68 207 4.0 11.0 0.00 0.70 0.00 73 1008.2
20260506125530 68 150 3.0 10.0 0.00 0.70 0.00 73 1008.3
20260506125033 68 130 3.0 10.0 0.00 0.70 0.00 74 1008.3
20260506124530 69 142 3.0 9.0 0.00 0.70 0.00 73 1008.3
20260506124030 69 184 2.0 8.0 0.00 0.70 0.00 73 1008.2
20260506123530 69 169 0.0 7.0 0.00 0.70 0.00 74 1008.1
20260506123030 69 126 2.0 9.0 0.00 0.70 0.00 75 1008.0
20260506122536 68 139 2.0 8.0 0.00 0.70 0.00 77 1008.0
20260506122039 68 167 6.0 11.0 0.00 0.70 0.00 78 1008.0
20260506121530 68 157 7.0 10.0 0.00 0.70 0.00 78 1008.0
20260506121030 68 166 5.0 10.0 0.00 0.70 0.00 81 1007.9
20260506120539 67 167 5.0 9.0 0.00 0.70 0.00 81 1007.9
20260506120033 66 161 1.0 10.0 0.00 0.70 0.00 81 1007.9
20260506115533 66 185 2.0 10.0 0.00 0.70 0.00 81 1007.9
20260506115036 66 168 7.0 11.0 0.00 0.70 0.00 80 1007.9
20260506114536 67 150 6.0 14.0 0.00 0.70 0.00 80 1007.9
20260506114030 67 178 5.0 11.0 0.00 0.70 0.00 79 1007.9
20260506113530 67 182 4.0 9.0 0.00 0.70 0.00 80 1007.9
20260506113030 67 246 3.0 12.0 0.00 0.70 0.00 78 1007.9
20260506112530 68 162 6.0 12.0 0.00 0.70 0.00 79 1007.8
20260506112039 67 159 8.0 8.0 0.00 0.70 0.00 80 1007.8
20260506111530 67 161 5.0 11.0 0.00 0.70 0.00 80 1007.8
20260506111039 67 154 7.0 10.0 0.00 0.70 0.00 79 1007.8
20260506110536 67 242 2.0 8.0 0.00 0.70 0.00 79 1007.8
20260506110030 67 108 2.0 10.0 0.00 0.70 0.00 78 1007.8
20260506105530 67 190 7.0 11.0 0.00 0.70 0.00 79 1007.9
20260506105033 67 244 3.0 11.0 0.00 0.70 0.00 79 1007.8
20260506104533 67 170 4.0 10.0 0.00 0.70 0.00 80 1007.9
20260506104033 67 181 1.0 12.0 0.00 0.70 0.00 79 1007.9
20260506103533 67 181 5.0 10.0 0.00 0.70 0.00 79 1007.9
20260506103030 67 148 5.0 11.0 0.00 0.70 0.00 78 1007.8
20260506102530 68 196 4.0 7.0 0.00 0.70 0.00 79 1007.8
20260506102030 68 130 1.0 10.0 0.00 0.70 0.00 79 1007.8
20260506101530 68 103 3.0 8.0 0.00 0.70 0.00 78 1007.7
20260506101030 67 117 3.0 9.0 0.00 0.70 0.00 79 1007.6
20260506100536 67 155 3.0 9.0 0.00 0.70 0.00 80 1007.7
20260506100030 67 134 4.0 9.0 0.00 0.70 0.00 81 1007.7
20260506095536 66 157 3.0 9.0 0.00 0.70 0.00 80 1007.8
20260506095030 66 135 1.0 9.0 0.00 0.70 0.00 81 1007.8
20260506094530 66 173 2.0 6.0 0.00 0.70 0.00 81 1007.7
20260506094036 66 140 2.0 8.0 0.00 0.70 0.00 80 1007.7
20260506093533 66 167 5.0 10.0 0.00 0.70 0.00 81 1007.8
20260506093030 66 160 0.0 10.0 0.00 0.70 0.00 82 1007.7
20260506092539 65 161 2.0 8.0 0.00 0.70 0.00 84 1007.6
20260506092036 64 183 4.0 7.0 0.00 0.70 0.00 84 1007.6
20260506091533 64 138 2.0 6.0 0.00 0.70 0.00 85 1007.6
20260506091036 64 160 5.0 7.0 0.00 0.70 0.00 85 1007.6
20260506090530 64 161 4.0 5.0 0.00 0.70 0.00 85 1007.5
20260506090030 64 115 2.0 8.0 0.00 0.70 0.00 86 1007.4
20260506085530 64 172 5.0 7.0 0.00 0.70 0.00 87 1007.4
20260506085033 63 74 1.0 12.0 0.00 0.70 0.00 87 1007.3
20260506084530 63 233 4.0 7.0 0.00 0.70 0.00 88 1007.2
20260506084030 63 192 1.0 8.0 0.00 0.70 0.00 88 1007.1
20260506083536 63 242 0.0 6.0 0.00 0.70 0.00 89 1007.1
20260506083033 63 187 2.0 7.0 0.00 0.70 0.00 89 1007.1
20260506082536 63 190 3.0 11.0 0.00 0.70 0.00 90 1007.0
20260506082030 63 117 3.0 8.0 0.00 0.70 0.00 90 1007.0
20260506081533 63 109 3.0 10.0 0.00 0.70 0.00 90 1007.0
20260506081033 63 134 2.0 11.0 0.00 0.70 0.00 91 1006.9
20260506080530 63 159 6.0 10.0 0.00 0.70 0.00 91 1006.9
20260506073036 63 149 4.0 14.0 0.03 0.70 0.00 91 1006.8
20260506072529 63 169 5.0 12.0 0.03 0.70 0.00 91 1006.7
20260506072030 63 233 2.0 9.0 0.03 0.70 0.00 91 1006.6
20260506071530 63 106 2.0 10.0 0.03 0.70 0.00 91 1006.6
20260506071036 63 162 5.0 11.0 0.03 0.70 0.00 91 1006.5
20260506070530 63 140 5.0 12.0 0.03 0.70 0.00 91 1006.5
20260506062030 62 153 4.0 13.0 0.00 0.67 0.00 90 1006.0
20260506061530 62 75 2.0 11.0 0.00 0.69 0.00 89 1006.1
20260506061033 62 103 6.0 13.0 0.00 0.70 0.00 89 1006.1
20260506060533 61 120 3.0 13.0 0.00 0.71 0.00 89 1006.2
20260506051030 58 39 0.0 3.0 0.01 0.97 0.00 92 1006.5
20260506050530 57 5 0.0 2.0 0.02 0.98 0.00 92 1006.4
20260506045030 57 295 0.0 1.0 0.03 1.00 0.00 92 1006.3
20260506044530 58 266 1.0 3.0 0.04 1.01 0.00 92 1006.3
20260506044032 58 334 2.0 4.0 0.04 1.03 0.00 92 1006.3
20260506043533 57 321 1.0 3.0 0.04 1.05 0.00 92 1006.5
20260506043030 57 10 1.0 2.0 0.04 1.10 0.00 92 1006.6
20260506042533 58 315 1.0 3.0 0.04 1.14 0.00 92 1006.7
20260506042030 58 27 3.0 3.0 0.04 1.18 0.00 91 1006.8
20260506041532 58 80 1.0 4.0 0.04 1.22 0.00 91 1006.8
20260506041035 58 328 1.0 3.0 0.03 1.25 0.00 91 1007.1
20260506040532 58 310 0.0 3.0 0.02 1.27 0.00 90 1007.4
20260506040036 58 269 1.0 1.0 0.01 1.29 0.00 90 1007.3
20260506035532 58 29 0.0 1.0 0.00 1.35 0.00 89 1007.2
20260506035029 58 128 0.0 0.0 0.00 1.37 0.00 88 1007.2
20260506034533 58 128 0.0 0.0 0.00 1.37 0.00 87 1007.2
20260506034029 58 128 0.0 2.0 0.00 1.41 0.00 87 1007.1
20260506033530 58 175 1.0 1.0 0.01 1.44 0.00 86 1006.9
20260506033030 58 117 0.0 2.0 0.01 1.45 0.00 85 1006.8
20260506032538 58 78 0.0 2.0 0.01 1.46 0.00 85 1006.8
20260506032032 58 30 0.0 10.0 0.01 1.48 0.00 85 1006.7
20260506031533 58 51 4.0 9.0 0.02 1.51 0.00 86 1006.7
20260506031029 58 95 6.0 11.0 0.03 1.54 0.00 87 1006.8
20260506030529 58 67 6.0 10.0 0.03 1.55 0.00 87 1006.9
20260506030029 57 24 4.0 9.0 0.18 1.55 0.00 88 1007.1
20260506025530 57 49 2.0 10.0 0.19 1.56 0.00 88 1007.3
20260506025030 57 76 2.0 10.0 0.22 1.57 0.00 89 1007.4
20260506024535 57 29 2.0 11.0 0.25 1.57 0.00 89 1007.5
20260506024029 57 42 4.0 9.0 0.27 1.57 0.00 89 1007.7
20260506023532 57 78 8.0 8.0 0.29 1.57 0.00 90 1007.8
20260506023029 57 71 6.0 6.0 0.34 1.58 0.00 91 1008.0
20260506022530 57 347 4.0 6.0 0.39 1.59 0.00 90 1008.1
20260506022033 57 51 3.0 8.0 0.43 1.61 0.00 90 1008.2
20260506021530 57 324 1.0 4.0 0.44 1.61 0.00 90 1008.2
20260506021033 57 134 0.0 11.0 0.51 1.61 0.00 90 1008.2
20260506020535 57 9 8.0 8.0 0.53 1.62 0.00 91 1008.3
20260506020030 57 5 3.0 6.0 0.39 1.48 0.00 89 1008.2
20260506015529 57 344 3.0 8.0 0.37 1.46 0.00 89 1008.3
20260506015029 58 309 1.0 10.0 0.36 1.44 0.00 88 1008.6
20260506014530 58 319 5.0 8.0 0.33 1.40 0.00 88 1008.8
20260506014032 59 14 2.0 7.0 0.30 1.39 0.00 88 1008.8
20260506013532 60 333 1.0 7.0 0.28 1.37 0.00 89 1008.9
20260506013032 61 327 5.0 5.0 0.22 1.32 0.00 89 1009.1
20260506012529 61 246 2.0 7.0 0.18 1.27 0.00 89 1009.2
20260506012029 61 259 3.0 6.0 0.14 1.24 0.00 88 1008.9
20260506011532 61 242 4.0 4.0 0.12 1.22 0.00 88 1008.9
20260506011029 61 248 2.0 7.0 0.05 1.15 0.00 88 1008.7
20260506010529 61 246 3.0 4.0 0.03 1.13 0.00 88 1008.5
20260506010029 61 261 2.0 3.0 0.03 1.13 0.00 88 1008.5
20260506005536 61 119 1.0 2.0 0.03 1.14 0.00 88 1008.5
20260506005029 61 115 0.0 2.0 0.02 1.14 0.00 88 1008.5
20260506004529 61 117 1.0 5.0 0.01 1.14 0.00 88 1008.7
20260506004029 61 119 1.0 5.0 0.01 1.14 0.00 87 1008.8
20260506003538 62 58 1.0 7.0 0.01 1.14 0.00 88 1008.9
20260506003029 62 162 0.0 13.0 0.01 1.14 0.00 88 1008.8
20260506002529 62 140 5.0 11.0 0.01 1.14 0.00 88 1008.7
20260506002035 62 319 0.0 1.0 0.01 1.14 0.00 87 1008.5
20260506001532 62 319 0.0 0.0 0.00 1.13 0.00 87 1008.4
20260506001032 62 319 0.0 0.0 0.00 1.13 0.00 87 1008.6
20260506000535 62 319 0.0 4.0 0.00 1.12 0.00 87 1008.6
20260506000032 62 316 3.0 3.0 0.00 1.12 0.00 87 1008.7
20260505235535 62 301 3.0 3.0 0.00 1.12 0.00 87 1008.9
20260505235033 63 306 0.0 3.0 0.00 1.12 0.00 87 1008.8
20260505234530 63 306 3.0 4.0 0.00 1.12 0.00 88 1009.0
20260505234032 63 128 0.0 2.0 0.00 1.12 0.00 88 1009.3
20260505233529 63 127 0.0 2.0 0.00 1.12 0.00 87 1009.4
20260505233029 63 112 0.0 3.0 0.00 1.12 0.00 87 1009.4
20260505232532 63 117 1.0 5.0 0.00 1.12 0.00 87 1009.5
20260505232029 63 98 0.0 2.0 0.00 1.12 0.00 87 1009.7
20260505231532 63 98 0.0 2.0 0.00 1.12 0.00 86 1009.7
20260505231029 63 170 1.0 2.0 0.00 1.12 0.00 86 1009.8
20260505230530 63 184 0.0 2.0 0.00 1.12 0.00 86 1009.8
20260505230029 63 184 0.0 2.0 0.00 1.12 0.00 86 1009.9
20260505225529 63 183 0.0 3.0 0.00 1.12 0.00 86 1009.9
20260505225029 63 183 0.0 2.0 0.00 1.12 0.00 86 1009.8
20260505224535 63 182 2.0 2.0 0.00 1.12 0.00 86 1009.9
20260505224038 63 186 0.0 4.0 0.00 1.12 0.00 86 1010.0
20260505223533 63 148 2.0 5.0 0.00 1.12 0.00 86 1010.1
20260505223029 63 213 2.0 8.0 0.00 1.12 0.00 86 1010.2
20260505222533 63 169 1.0 4.0 0.00 1.12 0.00 86 1010.2
20260505222029 63 142 2.0 12.0 0.00 1.12 0.00 86 1010.3
20260505221529 64 63 6.0 12.0 0.00 1.12 0.00 86 1010.3
20260505221032 64 117 3.0 4.0 0.00 1.12 0.00 86 1010.2
20260505220532 64 157 1.0 2.0 0.00 1.12 0.00 86 1010.2
20260505220029 64 123 2.0 6.0 0.00 1.12 0.00 86 1010.2
20260505215538 64 145 1.0 6.0 0.00 1.12 0.00 86 1010.2
20260505215035 64 121 1.0 4.0 0.00 1.12 0.00 86 1010.2
20260505214529 64 171 2.0 3.0 0.00 1.12 0.00 86 1010.3
20260505214032 64 92 0.0 5.0 0.00 1.12 0.00 86 1010.4
20260505213529 64 160 0.0 6.0 0.00 1.12 0.00 86 1010.5
20260505213035 64 164 2.0 5.0 0.00 1.12 0.00 86 1010.5
20260505212529 64 144 5.0 8.0 0.00 1.12 0.00 86 1010.6
20260505212029 64 168 2.0 4.0 0.00 1.12 0.00 85 1010.5
20260505211532 64 158 2.0 4.0 0.00 1.12 0.00 85 1010.6
20260505211032 64 114 0.0 4.0 0.00 1.12 0.00 85 1010.6
20260505210529 64 141 4.0 4.0 0.00 1.12 0.00 85 1010.6
20260505210029 64 153 0.0 3.0 0.00 1.12 0.00 85 1010.7
20260505205529 64 144 2.0 5.0 0.00 1.12 0.00 85 1010.8
20260505205029 64 112 2.0 5.0 0.00 1.12 0.00 85 1010.8